Tracking 25711 objects as of 22-May-2022
HD Live streaming from Space Station
objects crossing your sky now

BREEZE-M DEB (TANK)

Track BREEZE-M DEB (TANK) now!


NORAD ID: 38979
Int'l Code: 2012-061C
Perigee: 597.6 km
Apogee: 35,452.1 km
Inclination: 47.1 °
Period: 632.0 minutes
Semi major axis: 24395 km
RCS: 7.6752 m2 (large)
Launch date: November 2, 2012
Source: Commonwealth of Independent States (former USSR) (CIS)
Launch site: TYURATAM MISSILE AND SPACE COMPLEX (TTMTR)

Note: This is SATELLITE DEBRIS
aabbcc
Your satellite tracking list
Your tracking list is empty




NASA's NSSDC Master Catalog

Two Line Element Set (TLE):
1 38979U 12061C   22140.84615567  .00000123  00000-0 -13844-3 0  9997
2 38979  47.1263 178.8281 7143526 117.1912 330.3480  2.27839300 77870
Source of the keplerian elements: AFSPC